[[{"header":{"parameterUnit":"m.s-1","parameterCategory":1,"la1":30.2991,"la2":30.254,"lo1":-89.0895,"lo2":-89.0444,"dy":0.0017,"dx":0.0017,"nx":28,"ny":28,"refTime":"2025-03-02T09:00:00:Z","depth":0,"parameterNumber":2,"parameterNumberName":"U-component_of_WINDS"},"data":[0,0,0,0,0,0,0,0,0,0,0,0,0,0,0,0,0,0,0,0,0,0,0,0,0,0,0,0,0,0,0,0,0,0,0,0,0,0,0,0,0,0,0,0,0,0,0,0,0,0,0,0,0,0,0,0,0,0,-4.4353,-4.4353,0,-4.44,-4.44,-4.4401,-4.4265,-4.426,-4.4256,-4.4252,-4.4305,-4.431,-4.4315,0,0,0,0,0,0,0,0,0,0,0,0,0,-4.4148,-4.4153,-4.4353,-4.4353,-4.4354,-4.44,-4.44,-4.4401,-4.4265,-4.426,-4.4255,-4.425,-4.4303,-4.4309,-4.4315,0,0,0,0,0,0,0,0,0,0,0,0,0,-4.4221,-4.4154,-4.4353,-4.4292,-4.4287,-4.44,-4.4401,-4.4401,-4.4266,-4.426,-4.4254,-4.4248,-4.4301,-4.4308,-4.4316,-4.4492,0,0,-4.4341,-4.4344,0,0,0,0,0,0,0,0,-4.4217,-4.4228,-4.43,-4.4296,-4.4291,-4.432,-4.4347,-4.4432,-4.4268,-4.4274,-4.4252,-4.4245,-4.4315,-4.4321,-4.4344,-4.4494,-4.4497,-4.4341,-4.4346,-4.435,-4.4352,0,0,0,0,0,0,0,-4.4212,-4.4226,-4.4371,-4.4301,-4.4296,-4.4263,-4.4266,-4.4363,-4.433,-4.4273,-4.4263,-4.4271,-4.4311,-4.4337,-4.4344,-4.4497,-4.4341,-4.4348,-4.4353,-4.4356,-4.4793,-4.48,0,0,0,0,0,0,-4.4214,-4.4222,-4.437,-4.4373,-4.4237,-4.4272,-4.4275,-4.4317,-4.4328,-4.4324,-4.4276,-4.4264,-4.4326,-4.4335,-4.4346,-4.4551,-4.435,-4.4357,-4.4362,-4.4787,-4.4795,-4.4802,0,0,0,0,0,0,-4.421,-4.4229,-4.4368,-4.4295,-4.431,-4.4282,-4.433,-4.4321,-4.4346,-4.433,-4.4324,-4.4308,-4.4322,-4.4335,-4.4456,-4.4551,-4.4361,-4.4368,-4.4778,-4.4789,-4.4798,-4.4965,0,0,0,0,0,0,-4.4205,-4.4228,-4.4294,-4.4297,-4.4315,-4.4477,-4.4336,-4.4327,-4.436,-4.4345,-4.4359,-4.4355,-4.4318,-4.4445,-4.4464,-4.4559,-4.4374,-4.477,-4.4783,-4.4795,-4.4951,-4.4979,-4.5004,0,0,0,0,0,-4.4198,-4.434,-4.4298,-4.4317,-4.4396,-4.4483,-4.4493,-4.4446,-4.4368,-4.4435,-4.4424,-4.4354,-4.4538,-4.4459,-4.4479,-4.4578,-4.4764,-4.4779,-4.4794,-4.4939,-4.4974,-4.5003,0,0,0,0,0,0,-4.435,-4.4339,-4.4293,-4.444,-4.4463,-4.446,-4.4542,-4.4485,-4.4532,-4.4516,-4.4457,-4.4462,-4.4594,-4.4598,-4.451,-4.4748,-4.4637,-4.4658,-4.474,-4.4774,-4.48,-4.4796,-4.4381,0,0,0,0,0,-4.4401,-4.4471,-4.4458,-4.4589,-4.4603,-4.4571,-4.4607,-4.4569,-4.4591,-4.4601,-4.4599,-4.4625,-4.4688,-4.4731,-4.4788,-4.495,-4.4951,-4.5028,-4.5055,-4.5077,-4.5095,-4.5181,-4.5215,-4.4853,-4.4852,-4.4852,0,0,-4.4506,-4.4509,-4.4557,-4.462,-4.4633,-4.4708,-4.458,-4.4665,-4.472,-4.4614,-4.4728,-4.4728,-4.4753,-4.4895,-4.4958,-4.4903,-4.5195,-4.5097,-4.5114,-4.512,-4.52,-4.5234,-4.5265,-4.4863,-4.4861,-4.4859,0,0,-4.4735,-4.4745,-4.4854,-4.487,-4.4892,-4.4869,-4.4896,-4.4901,-4.4897,-4.501,-4.4931,-4.4997,-4.5107,-4.5128,-4.5153,-4.539,-4.5328,-4.541,-4.555,-4.5634,-4.5662,-4.5687,-4.5772,-4.5803,-4.5428,-4.5429,-4.5429,0,-4.4864,-4.4972,-4.4918,-4.5008,-4.5038,-4.4944,-4.5055,-4.5073,-4.5114,-4.5137,-4.5074,-4.5209,-4.522,-4.5365,-4.5423,-4.5446,-4.5475,-4.5408,-4.5662,-4.5687,-4.571,-4.5789,-4.5821,-4.5439,-4.5438,-4.5437,-4.5436,0,-4.5129,-4.5206,-4.5292,-4.5331,-4.5371,-4.5471,-4.5433,-4.548,-4.5438,-4.5423,-4.5539,-4.5548,-4.5605,-4.5637,-4.5598,-4.5777,-4.5742,-4.5672,-4.556,-4.5755,-4.5829,-4.5859,-4.5453,-4.5449,-4.5446,-4.5444,0,0,-4.5456,-4.5463,-4.5496,-4.5512,-4.5529,-4.5588,-4.5684,-4.5738,-4.5779,-4.581,-4.5889,-4.5985,-4.5919,-4.5948,-4.591,-4.5984,-4.6171,-4.5905,-4.5904,-4.5954,-4.6369,-4.6421,-4.6457,-4.613,-4.6135,-4.614,-4.6367,0,-4.5681,-4.5844,-4.5798,-4.5962,-4.6032,-4.5943,-4.6027,-4.6047,-4.6035,-4.6094,-4.6081,-4.6149,-4.6058,-4.6075,-4.6144,-4.6134,-4.6254,-4.6117,-4.6204,-4.6207,-4.62,-4.6496,-4.6551,-4.6765,-4.6395,-4.64,-4.6404,0,-4.5966,-4.6007,-4.6177,-4.6181,-4.6209,-4.6285,-4.6331,-4.6388,-4.6409,-4.6395,-4.6427,-4.6374,-4.6469,-4.6357,-4.6487,-4.6396,-4.6428,-4.6429,-4.6436,-4.6442,-4.6317,-4.651,-4.6832,-4.6864,-4.6449,-4.6445,-4.6442,0,-4.6187,-4.6284,-4.6398,-4.6415,-4.6423,-4.6479,-4.6485,-4.65,-4.6535,-4.6576,-4.6598,-4.665,-4.6678,-4.672,-4.6683,-4.6605,-4.682,-4.6704,-4.6811,-4.6813,-4.686,-4.6858,-4.7192,-4.6883,-4.6883,-4.6882,-4.6881,0,-4.6443,-4.6551,-4.6497,-4.6568,-4.6686,-4.6632,-4.6751,-4.6747,-4.6761,-4.6829,-4.6757,-4.6823,-4.677,-4.6832,-4.6804,-4.6916,-4.693,-4.6922,-4.6913,-4.6928,-4.6929,-4.6948,-4.6932,-4.689,-4.6889,-4.6887,-4.6885,0,-4.671,-4.6678,-4.6796,-4.6794,-4.6796,-4.6883,-4.6881,-4.6947,-4.6929,-4.7017,-4.7035,-4.7008,-4.7077,-4.7044,-4.7117,-4.7098,-4.7242,-4.7214,-4.7235,-4.7227,-4.7336,-4.7326,-4.7694,-4.7739,-4.7402,-4.7405,-4.7408,0,-4.6875,-4.6955,-4.6961,-4.7001,-4.7012,-4.7078,-4.7113,-4.7063,-4.7103,-4.7133,-4.7195,-4.7257,-4.7304,-4.7419,-4.7407,-4.7462,-4.7434,-4.756,-4.7442,-4.7455,-4.7436,-4.7431,-4.7439,-4.7583,-4.7587,-4.759,-4.7593,0,-4.7172,-4.7152,-4.7204,-4.7253,-4.7296,-4.7332,-4.7361,-4.7399,-4.735,-4.7399,-4.7468,-4.7504,-4.7577,-4.764,-4.7688,-4.7696,-4.7637,-4.763,-4.7657,-4.7673,-4.7682,-4.7678,-4.7299,-4.7622,-4.7619,-4.7617,-4.7615,-4.7614,-4.7392,-4.7459,-4.7473,-4.7534,-4.7551,-4.758,-4.7641,-4.7631,-4.7687,-4.7741,-4.7709,-4.779,-4.7809,-4.7867,-4.7882,-4.7945,-4.7896,-4.7936,-4.7946,-4.7957,-4.7971,-4.7672,-4.7954,-4.7953,-4.7953,-4.7952,-4.7951,0,-4.7684,-4.7688,-4.7745,-4.7788,-4.7837,-4.7776,-4.7805,-4.785,-4.7921,-4.7943,-4.7991,-4.807,-4.8131,-4.8123,-4.8179,-4.8231,-4.8205,-4.8247,-4.8242,-4.8245,-4.8012,-4.7982,-4.8267,-4.8267,-4.8267,-4.8266,-4.8266,-4.8266,-4.7841,-4.7951,-4.7933,-4.8051,-4.8055,-4.8132,-4.8154,-4.8181,-4.8198,-4.8289,-4.8338,-4.8332,-4.8343,-4.8398,-4.8452,-4.8448,-4.8472,-4.8524,-4.851,-4.8293,-4.8261,-4.8232,-4.8203,-4.8529,-4.853,-4.8737,-4.8739,-4.8741]},{"header":{"parameterUnit":"m.s-1","parameterCategory":1,"la1":30.2991,"la2":30.254,"lo1":-89.0895,"lo2":-89.0444,"dy":0.0017,"dx":0.0017,"nx":28,"ny":28,"refTime":"2025-03-02T09:00:00:Z","depth":0,"parameterNumber":3,"parameterNumberName":"V-component_of_WINDS"},"data":[0,0,0,0,0,0,0,0,0,0,0,0,0,0,0,0,0,0,0,0,0,0,0,0,0,0,0,0,0,0,0,0,0,0,0,0,0,0,0,0,0,0,0,0,0,0,0,0,0,0,0,0,0,0,0,0,0,0,-0.4509,-0.4509,0,-0.4489,-0.4488,-0.4488,-0.4488,-0.4488,-0.4488,-0.4489,-0.4468,-0.4467,-0.4467,0,0,0,0,0,0,0,0,0,0,0,0,0,-0.4548,-0.4547,-0.4509,-0.4509,-0.4509,-0.4489,-0.4488,-0.4488,-0.4488,-0.4488,-0.4488,-0.4489,-0.4468,-0.4467,-0.4467,0,0,0,0,0,0,0,0,0,0,0,0,0,-0.453,-0.4547,-0.4509,-0.4506,-0.4506,-0.4489,-0.4488,-0.4488,-0.4488,-0.4488,-0.4488,-0.4489,-0.4469,-0.4468,-0.4466,-0.4452,0,0,-0.4463,-0.4462,0,0,0,0,0,0,0,0,-0.4531,-0.4528,-0.4507,-0.4506,-0.4506,-0.4491,-0.4495,-0.4476,-0.4488,-0.4495,-0.4489,-0.4489,-0.4476,-0.4474,-0.4469,-0.4451,-0.445,-0.4463,-0.4462,-0.4462,-0.4461,0,0,0,0,0,0,0,-0.4532,-0.4529,-0.4501,-0.4507,-0.4506,-0.4506,-0.4503,-0.4491,-0.4483,-0.4494,-0.4494,-0.4491,-0.4475,-0.447,-0.4469,-0.4449,-0.4463,-0.4462,-0.4461,-0.4461,-0.4416,-0.4416,0,0,0,0,0,0,-0.4534,-0.453,-0.4502,-0.4501,-0.4519,-0.4505,-0.4502,-0.4496,-0.4483,-0.4482,-0.4491,-0.4491,-0.4472,-0.447,-0.4468,-0.4448,-0.4462,-0.446,-0.446,-0.4416,-0.4416,-0.4415,0,0,0,0,0,0,-0.4535,-0.4531,-0.4503,-0.4515,-0.4512,-0.4504,-0.4496,-0.4495,-0.449,-0.4481,-0.448,-0.4487,-0.4472,-0.447,-0.4455,-0.4448,-0.446,-0.4459,-0.4417,-0.4416,-0.4416,-0.441,0,0,0,0,0,0,-0.4536,-0.4532,-0.4526,-0.4515,-0.4511,-0.449,-0.4496,-0.4494,-0.4488,-0.4488,-0.4477,-0.4476,-0.4472,-0.4457,-0.4454,-0.4446,-0.4458,-0.4418,-0.4417,-0.4416,-0.4411,-0.441,-0.4408,0,0,0,0,0,-0.4537,-0.4526,-0.4526,-0.4522,-0.4504,-0.449,-0.4488,-0.4484,-0.4487,-0.4481,-0.4475,-0.4476,-0.4449,-0.4455,-0.4452,-0.4444,-0.4418,-0.4417,-0.4416,-0.4412,-0.441,-0.4408,0,0,0,0,0,0,-0.4537,-0.4525,-0.4524,-0.4509,-0.4501,-0.449,-0.4482,-0.4482,-0.4472,-0.4473,-0.4469,-0.4466,-0.4451,-0.4447,-0.4454,-0.4428,-0.4434,-0.4432,-0.4432,-0.443,-0.4429,-0.443,-0.4457,0,0,0,0,0,-0.4535,-0.4525,-0.4515,-0.4502,-0.4498,-0.4491,-0.4485,-0.4482,-0.4473,-0.447,-0.4463,-0.4454,-0.4443,-0.4437,-0.4427,-0.4411,-0.4408,-0.4403,-0.4402,-0.4401,-0.4399,-0.4389,-0.4386,-0.4412,-0.4412,-0.4412,0,0,-0.4531,-0.4523,-0.4517,-0.4502,-0.4495,-0.4484,-0.4488,-0.4477,-0.4468,-0.4468,-0.4453,-0.4448,-0.4438,-0.4422,-0.4415,-0.4418,-0.4391,-0.4399,-0.4398,-0.4397,-0.4387,-0.4385,-0.4383,-0.4411,-0.4411,-0.4411,0,0,-0.4518,-0.4512,-0.45,-0.4492,-0.4481,-0.4477,-0.4474,-0.4463,-0.4459,-0.4444,-0.4443,-0.4434,-0.4416,-0.4408,-0.4402,-0.4385,-0.4385,-0.4382,-0.4374,-0.4364,-0.4362,-0.436,-0.4352,-0.435,-0.438,-0.438,-0.438,0,-0.4515,-0.4498,-0.4494,-0.4482,-0.4475,-0.4473,-0.4461,-0.4454,-0.4441,-0.4436,-0.4439,-0.4415,-0.4409,-0.439,-0.4386,-0.4381,-0.4377,-0.4383,-0.4362,-0.436,-0.4359,-0.4351,-0.4349,-0.438,-0.438,-0.438,-0.438,0,-0.4494,-0.4482,-0.4474,-0.446,-0.4452,-0.444,-0.4434,-0.4426,-0.4424,-0.4419,-0.4403,-0.4395,-0.4382,-0.4378,-0.4376,-0.4359,-0.4361,-0.4363,-0.4369,-0.4356,-0.4349,-0.4346,-0.4379,-0.4379,-0.4379,-0.4379,0,0,-0.4481,-0.4463,-0.446,-0.4453,-0.4441,-0.4431,-0.4419,-0.4406,-0.4399,-0.439,-0.4379,-0.4363,-0.4364,-0.4357,-0.4355,-0.4346,-0.4331,-0.4349,-0.4349,-0.4345,-0.431,-0.4308,-0.4305,-0.4331,-0.4331,-0.433,-0.431,0,-0.4466,-0.4443,-0.4438,-0.4419,-0.4407,-0.4405,-0.4394,-0.4385,-0.4379,-0.4368,-0.4363,-0.4351,-0.4355,-0.435,-0.4341,-0.4335,-0.4324,-0.4336,-0.432,-0.4319,-0.4322,-0.4301,-0.4299,-0.4281,-0.4308,-0.4307,-0.4307,0,-0.4445,-0.4434,-0.4413,-0.44,-0.4395,-0.4385,-0.4372,-0.4363,-0.4352,-0.4348,-0.4339,-0.4337,-0.4324,-0.433,-0.4311,-0.4319,-0.4312,-0.4308,-0.4307,-0.4305,-0.4312,-0.4297,-0.4275,-0.4272,-0.4303,-0.4303,-0.4304,0,-0.4436,-0.4416,-0.4401,-0.4395,-0.438,-0.4373,-0.4366,-0.4356,-0.4348,-0.4336,-0.4331,-0.4319,-0.4311,-0.4302,-0.4296,-0.4302,-0.4277,-0.4283,-0.4273,-0.4273,-0.4267,-0.4267,-0.4242,-0.4264,-0.4264,-0.4264,-0.4264,0,-0.4419,-0.4406,-0.4396,-0.4386,-0.4371,-0.4366,-0.4351,-0.4344,-0.4335,-0.4323,-0.4321,-0.4311,-0.4304,-0.4292,-0.4288,-0.4272,-0.4269,-0.4265,-0.4264,-0.4265,-0.4265,-0.426,-0.4261,-0.4264,-0.4264,-0.4264,-0.4264,0,-0.4407,-0.44,-0.4382,-0.4369,-0.4365,-0.4355,-0.4343,-0.4333,-0.4327,-0.4313,-0.4309,-0.43,-0.4286,-0.4279,-0.4262,-0.4259,-0.424,-0.4241,-0.4244,-0.4243,-0.4233,-0.4233,-0.4203,-0.4198,-0.4224,-0.4224,-0.4224,0,-0.4396,-0.4386,-0.4371,-0.4363,-0.4356,-0.4343,-0.4335,-0.4329,-0.432,-0.4305,-0.4297,-0.4283,-0.4271,-0.4249,-0.424,-0.4227,-0.4226,-0.4216,-0.4224,-0.4225,-0.4225,-0.4225,-0.4223,-0.4215,-0.4214,-0.4214,-0.4214,0,-0.4378,-0.4374,-0.4362,-0.4348,-0.4338,-0.4326,-0.4315,-0.4309,-0.4301,-0.4291,-0.4276,-0.4267,-0.4248,-0.4234,-0.422,-0.4213,-0.4212,-0.4212,-0.4208,-0.4209,-0.421,-0.4208,-0.4239,-0.4212,-0.4212,-0.4213,-0.4213,-0.4213,-0.4365,-0.4355,-0.4343,-0.4329,-0.4319,-0.4309,-0.4298,-0.4291,-0.4278,-0.4262,-0.4259,-0.4243,-0.4231,-0.4212,-0.4204,-0.4191,-0.4194,-0.4189,-0.4188,-0.4187,-0.4185,-0.4213,-0.4189,-0.4189,-0.4189,-0.4189,-0.4189,0,-0.4346,-0.4337,-0.4324,-0.4308,-0.4297,-0.4296,-0.4284,-0.4274,-0.426,-0.4248,-0.4236,-0.4219,-0.4204,-0.4194,-0.4179,-0.4171,-0.417,-0.4167,-0.4167,-0.4165,-0.4185,-0.4189,-0.4168,-0.4168,-0.4168,-0.4168,-0.4168,-0.4168,-0.4334,-0.4317,-0.4311,-0.4289,-0.4281,-0.4264,-0.4257,-0.4247,-0.4237,-0.4217,-0.4205,-0.4199,-0.4187,-0.4171,-0.4158,-0.4155,-0.4149,-0.4146,-0.4144,-0.4162,-0.4164,-0.4166,-0.417,-0.4146,-0.4145,-0.4125,-0.4125,-0.4125]}]]